Back to catalog

FENGYUN 1C DEB

AlivePO
NORAD 31236·DEBRIS·🇨🇳 China

Launched May 10, 1999 from Taiyuan Satellite Launch Center

Loading…

Next Passes (next 24 hours)

TLE

FreshSource: Space-Track

Epoch: Sep 13, 2026, 18:35 UTC

1 31236U 99025BLS 26256.77436424  .00005443  00000-0  30943-2 0  9995
2 31236  98.5435 194.1820 0308224  11.3685 349.4235 13.88946062648396

Track FENGYUN 1C DEB in real time with AllMySat

Download on the App Store